When you browse on this site, cookies collect data to enhance your experience and personalize the content and advertising you see.
Visit our Privacy Policy to learn more. By continuing to use the site, you agree to this use of cookies and data.
  • în România
  • Lista ţărilor
  • Pe 7 zile
  • Temperatura apei
  • Hartă satelitară
  • Meteo pe hartă
  • Widget-uri
  • user-avatar
    Intrare

    Meteo pe oră la Lognes

    Astăzi, 18 Aprilie, Joi

    Timp Temperatura Precipitaţii Vânt Presiune Umiditate
    00:00 +12°C° 0 mm 3 m/s 758 mmHg 86%
    01:00 +11°C° 0 mm 3 m/s 758 mmHg 87%
    02:00 +11°C° 0 mm 3 m/s 758 mmHg 87%
    03:00 +11°C° 0 mm 3 m/s 758 mmHg 88%
    04:00 +11°C° 0 mm 3 m/s 758 mmHg 86%
    05:00 +11°C° 0 mm 3 m/s 758 mmHg 85%
    06:00 +11°C° 0 mm 3 m/s 758 mmHg 83%
    07:00 +13°C° 0 mm 3 m/s 758 mmHg 77%
    08:00 +15°C° 0 mm 4 m/s 758 mmHg 70%
    09:00 +18°C° 0 mm 4 m/s 758 mmHg 64%
    10:00 +19°C° 0 mm 4 m/s 758 mmHg 59%
    11:00 +21°C° 0 mm 5 m/s 758 mmHg 54%
    12:00 +22°C° 0 mm 5 m/s 758 mmHg 49%
    13:00 +22°C° 0 mm 5 m/s 758 mmHg 49%
    14:00 +23°C° 0 mm 5 m/s 758 mmHg 49%
    15:00 +23°C° 0 mm 5 m/s 758 mmHg 49%
    16:00 +22°C° 0 mm 4 m/s 758 mmHg 54%
    17:00 +21°C° 0 mm 4 m/s 759 mmHg 58%
    18:00 +20°C° 0 mm 4 m/s 759 mmHg 63%
    19:00 +18°C° 0 mm 4 m/s 759 mmHg 66%
    20:00 +17°C° 0 mm 3 m/s 760 mmHg 69%
    21:00 +16°C° 0 mm 3 m/s 760 mmHg 73%
    22:00 +14°C° 0 mm 3 m/s 760 mmHg 74%
    23:00 +14°C° 0 mm 3 m/s 760 mmHg 76%

    Mâine, 19 Aprilie, Vineri

    Timp Temperatura Precipitaţii Vânt Presiune Umiditate
    00:00 +13°C° 0 mm 3 m/s 760 mmHg 78%
    01:00 +12°C° 0 mm 3 m/s 760 mmHg 79%
    02:00 +13°C° 0 mm 2 m/s 761 mmHg 80%
    03:00 +12°C° 0 mm 2 m/s 761 mmHg 82%
    04:00 +12°C° 0 mm 2 m/s 761 mmHg 82%
    05:00 +12°C° 0 mm 2 m/s 761 mmHg 82%
    06:00 +12°C° 0 mm 2 m/s 762 mmHg 82%
    07:00 +14°C° 0 mm 2 m/s 762 mmHg 76%
    08:00 +16°C° 0 mm 2 m/s 762 mmHg 69%
    09:00 +18°C° 0 mm 2 m/s 763 mmHg 62%
    10:00 +19°C° 0 mm 2 m/s 763 mmHg 58%
    11:00 +21°C° 0 mm 2 m/s 763 mmHg 53%
    12:00 +23°C° 0 mm 2 m/s 763 mmHg 49%
    13:00 +24°C° 0 mm 2 m/s 762 mmHg 48%
    14:00 +24°C° 0 mm 3 m/s 762 mmHg 48%
    15:00 +24°C° 0 mm 3 m/s 762 mmHg 48%
    16:00 +23°C° 0 mm 2 m/s 762 mmHg 52%
    17:00 +23°C° 0 mm 2 m/s 762 mmHg 57%
    18:00 +21°C° 0 mm 2 m/s 762 mmHg 62%
    19:00 +19°C° 0.3 mm 2 m/s 763 mmHg 68%
    20:00 +18°C° 0.3 mm 2 m/s 763 mmHg 73%
    21:00 +17°C° 0.3 mm 2 m/s 763 mmHg 79%
    22:00 +16°C° 0 mm 2 m/s 763 mmHg 81%
    23:00 +16°C° 0 mm 2 m/s 763 mmHg 82%

    Poimâine, 20 Aprilie, Sâmbătă

    Timp Temperatura Precipitaţii Vânt Presiune Umiditate
    00:00 +15°C° 0 mm 2 m/s 763 mmHg 84%
    01:00 +15°C° 0 mm 2 m/s 763 mmHg 85%
    02:00 +14°C° 0 mm 1 m/s 763 mmHg 85%
    03:00 +14°C° 0 mm 1 m/s 763 mmHg 85%
    04:00 +14°C° 0 mm 2 m/s 763 mmHg 85%
    05:00 +14°C° 0 mm 2 m/s 763 mmHg 85%
    06:00 +14°C° 0 mm 2 m/s 763 mmHg 84%
    07:00 +16°C° 0 mm 2 m/s 763 mmHg 77%
    08:00 +17°C° 0 mm 2 m/s 763 mmHg 71%
    09:00 +19°C° 0 mm 2 m/s 763 mmHg 64%
    10:00 +21°C° 0 mm 3 m/s 763 mmHg 58%
    11:00 +22°C° 0 mm 3 m/s 763 mmHg 52%
    12:00 +23°C° 0 mm 4 m/s 763 mmHg 45%
    13:00 +23°C° 0 mm 4 m/s 762 mmHg 44%
    14:00 +23°C° 0 mm 4 m/s 762 mmHg 44%
    15:00 +25°C° 0 mm 4 m/s 762 mmHg 43%
    16:00 +23°C° 0 mm 4 m/s 761 mmHg 47%
    17:00 +22°C° 0 mm 4 m/s 761 mmHg 51%
    18:00 +21°C° 0 mm 3 m/s 761 mmHg 55%
    19:00 +19°C° 0 mm 3 m/s 761 mmHg 59%
    20:00 +18°C° 0 mm 3 m/s 761 mmHg 63%
    21:00 +17°C° 0 mm 2 m/s 762 mmHg 67%
    22:00 +16°C° 0 mm 3 m/s 761 mmHg 67%
    23:00 +16°C° 0 mm 3 m/s 761 mmHg 67%

    21 Aprilie, Duminică

    Timp Temperatura Precipitaţii Vânt Presiune Umiditate
    00:00 +14°C° 0 mm 3 m/s 761 mmHg 67%
    01:00 +13°C° 0 mm 3 m/s 760 mmHg 66%
    02:00 +13°C° 0 mm 3 m/s 760 mmHg 64%
    03:00 +12°C° 0 mm 3 m/s 760 mmHg 63%
    04:00 +13°C° 0 mm 2 m/s 760 mmHg 64%
    05:00 +13°C° 0 mm 2 m/s 760 mmHg 65%
    06:00 +13°C° 0 mm 2 m/s 759 mmHg 67%
    07:00 +15°C° 0 mm 2 m/s 759 mmHg 62%
    08:00 +16°C° 0 mm 3 m/s 759 mmHg 58%
    09:00 +18°C° 0 mm 3 m/s 759 mmHg 54%
    10:00 +20°C° 0 mm 3 m/s 759 mmHg 49%
    11:00 +21°C° 0 mm 4 m/s 758 mmHg 44%
    12:00 +23°C° 0 mm 4 m/s 758 mmHg 39%
    13:00 +23°C° 0 mm 4 m/s 757 mmHg 39%
    14:00 +23°C° 0 mm 4 m/s 757 mmHg 39%
    15:00 +23°C° 0 mm 4 m/s 756 mmHg 39%
    16:00 +22°C° 0 mm 3 m/s 756 mmHg 44%
    17:00 +21°C° 0 mm 3 m/s 755 mmHg 48%
    18:00 +20°C° 0 mm 3 m/s 755 mmHg 52%
    19:00 +19°C° 0 mm 3 m/s 755 mmHg 55%
    20:00 +18°C° 0 mm 2 m/s 755 mmHg 58%
    21:00 +16°C° 0 mm 2 m/s 755 mmHg 61%
    22:00 +16°C° 0 mm 2 m/s 755 mmHg 63%
    23:00 +15°C° 0 mm 2 m/s 754 mmHg 64%

    22 Aprilie, Luni

    Timp Temperatura Precipitaţii Vânt Presiune Umiditate
    00:00 +14°C° 0 mm 2 m/s 754 mmHg 66%
    01:00 +14°C° 0 mm 2 m/s 753 mmHg 67%
    02:00 +13°C° 0 mm 2 m/s 753 mmHg 68%
    03:00 +13°C° 0 mm 2 m/s 753 mmHg 69%
    04:00 +12°C° 0 mm 2 m/s 753 mmHg 69%
    05:00 +12°C° 0 mm 2 m/s 752 mmHg 70%
    06:00 +12°C° 0 mm 2 m/s 752 mmHg 70%
    07:00 +14°C° 0 mm 2 m/s 752 mmHg 65%
    08:00 +16°C° 0 mm 2 m/s 752 mmHg 61%
    09:00 +18°C° 0 mm 3 m/s 752 mmHg 56%
    10:00 +19°C° 0 mm 3 m/s 751 mmHg 52%
    11:00 +21°C° 0 mm 3 m/s 751 mmHg 48%
    12:00 +22°C° 0 mm 3 m/s 750 mmHg 45%
    13:00 +22°C° 0 mm 3 m/s 750 mmHg 44%
    14:00 +24°C° 0 mm 3 m/s 749 mmHg 44%
    15:00 +24°C° 0 mm 3 m/s 749 mmHg 43%
    16:00 +22°C° 0 mm 3 m/s 748 mmHg 47%
    17:00 +21°C° 0 mm 3 m/s 748 mmHg 52%
    18:00 +20°C° 0 mm 3 m/s 748 mmHg 56%
    19:00 +19°C° 0 mm 3 m/s 748 mmHg 60%
    20:00 +17°C° 0 mm 3 m/s 748 mmHg 65%
    21:00 +16°C° 0 mm 2 m/s 748 mmHg 69%
    22:00 +16°C° 0 mm 2 m/s 748 mmHg 72%
    23:00 +15°C° 0 mm 2 m/s 748 mmHg 74%

    23 Aprilie, Marţi

    Timp Temperatura Precipitaţii Vânt Presiune Umiditate
    00:00 +14°C° 0 mm 1 m/s 748 mmHg 77%
    01:00 +14°C° 0 mm 1 m/s 747 mmHg 78%
    02:00 +13°C° 0 mm 1 m/s 747 mmHg 79%
    03:00 +13°C° 0 mm 1 m/s 747 mmHg 80%
    04:00 +13°C° 0 mm 1 m/s 747 mmHg 79%
    05:00 +13°C° 0 mm 1 m/s 747 mmHg 78%
    06:00 +13°C° 0 mm 1 m/s 747 mmHg 76%
    07:00 +15°C° 0 mm 1 m/s 747 mmHg 70%
    08:00 +18°C° 0 mm 1 m/s 747 mmHg 63%
    09:00 +20°C° 0 mm 1 m/s 747 mmHg 57%
    10:00 +21°C° 0 mm 1 m/s 747 mmHg 53%
    11:00 +21°C° 0 mm 2 m/s 747 mmHg 49%
    12:00 +24°C° 0 mm 2 m/s 747 mmHg 45%
    13:00 +24°C° 0 mm 2 m/s 747 mmHg 44%
    14:00 +24°C° 0 mm 2 m/s 747 mmHg 43%
    15:00 +25°C° 0 mm 1 m/s 747 mmHg 42%
    16:00 +24°C° 0.1 mm 2 m/s 747 mmHg 47%
    17:00 +23°C° 0.1 mm 2 m/s 747 mmHg 52%
    18:00 +21°C° 0.1 mm 2 m/s 747 mmHg 56%
    19:00 +20°C° 0 mm 2 m/s 748 mmHg 61%
    20:00 +18°C° 0 mm 2 m/s 748 mmHg 65%
    21:00 +17°C° 0 mm 2 m/s 749 mmHg 69%
    22:00 +17°C° 0 mm 2 m/s 749 mmHg 71%
    23:00 +16°C° 0 mm 1 m/s 750 mmHg 74%
    Arată mai mult